User: anonymous   Login
Location: Melbourne
(37.8170°S, 144.9670°E)
Time: 20:07:39
(UTC+11:00)
Language:

ERBS - Orbit

View from above orbital plane
View from above orbital plane
View from above satellite
View from above satellite

Ground track
Ground track

The orbit data is extracted from the following two-line orbital elements,

1 15354U 84108B   18051.73586929 +.00002928 +00000-0 +68877-4 0  9994
2 15354 057.0075 146.8932 0008129 189.1155 170.9755 15.45348231836330
Epoch (UTC): 20 February 2018 17:39:39
Eccentricity: 0.0008129
inclination: 57.0075°
perigee height: 425 km
apogee height: 436 km
right ascension of ascending node: 146.8932°
argument of perigee: 189.1155°
revolutions per day: 15.45348231
mean anomaly at epoch: 170.9755°
orbit number at epoch: 83633

The dashed part of the orbit path shows where the satellite is in the earth's shadow,  

DLR